| time (UTC) | temp F | wind direction | speed MPH | gust MPH | rain 1hr in | rain 24hr in | rain mn in | humidity % | barometer mb |
| 20260901230109 | 49 | 0 | 0.0 | 0.0 | 0.00 | 0.11 | 0.00 | 91 | 1018.8 |
| 20260901224604 | 48 | 0 | 0.0 | 0.0 | 0.00 | 0.11 | 0.00 | 91 | 1018.9 |
| 20260901223101 | 48 | 0 | 0.0 | 0.0 | 0.00 | 0.11 | 0.00 | 91 | 1018.6 |
| 20260901221611 | 48 | 0 | 0.0 | 0.0 | 0.00 | 0.11 | 0.00 | 91 | 1018.5 |
| 20260901220110 | 47 | 0 | 0.0 | 0.0 | 0.00 | 0.11 | 0.00 | 92 | 1018.4 |
| 20260901214601 | 47 | 0 | 0.0 | 0.0 | 0.00 | 0.11 | 0.00 | 92 | 1018.4 |
| 20260901213102 | 47 | 0 | 0.0 | 0.0 | 0.00 | 0.11 | 0.00 | 92 | 1018.4 |
| 20260901211606 | 47 | 0 | 0.0 | 0.0 | 0.00 | 0.11 | 0.00 | 92 | 1018.3 |
| 20260901210104 | 47 | 0 | 0.0 | 0.0 | 0.00 | 0.11 | 0.00 | 92 | 1018.1 |
| 20260901204602 | 47 | 0 | 0.0 | 0.0 | 0.00 | 0.11 | 0.00 | 92 | 1018.0 |
| 20260901203103 | 48 | 0 | 0.0 | 0.0 | 0.00 | 0.11 | 0.00 | 92 | 1017.8 |
| 20260901201606 | 48 | 0 | 0.0 | 0.0 | 0.00 | 0.11 | 0.00 | 92 | 1017.8 |
| 20260901200110 | 48 | 0 | 0.0 | 0.0 | 0.00 | 0.11 | 0.00 | 92 | 1017.8 |
| 20260901194616 | 48 | 0 | 0.0 | 0.0 | 0.00 | 0.11 | 0.00 | 92 | 1017.8 |
| 20260901193111 | 48 | 0 | 0.0 | 0.0 | 0.00 | 0.11 | 0.00 | 92 | 1017.7 |
| 20260901191612 | 48 | 0 | 0.0 | 0.0 | 0.00 | 0.11 | 0.00 | 92 | 1017.7 |
| 20260901190120 | 48 | 0 | 0.0 | 0.0 | 0.00 | 0.11 | 0.00 | 93 | 1017.8 |
| 20260901184600 | 49 | 0 | 0.0 | 0.0 | 0.00 | 0.11 | 0.00 | 93 | 1017.8 |
| 20260901183106 | 49 | 0 | 0.0 | 0.0 | 0.00 | 0.11 | 0.00 | 93 | 1017.6 |
| 20260901181609 | 49 | 0 | 0.0 | 0.0 | 0.00 | 0.11 | 0.00 | 93 | 1017.6 |
| 20260901180111 | 49 | 0 | 0.0 | 0.0 | 0.00 | 0.11 | 0.00 | 93 | 1017.6 |
| 20260901174603 | 49 | 0 | 0.0 | 0.0 | 0.00 | 0.11 | 0.00 | 93 | 1017.7 |
| 20260901173109 | 49 | 0 | 0.0 | 0.0 | 0.00 | 0.11 | 0.00 | 92 | 1017.7 |
| 20260901171610 | 49 | 0 | 0.0 | 0.0 | 0.00 | 0.11 | 0.00 | 93 | 1017.8 |
| 20260901170110 | 49 | 0 | 0.0 | 0.0 | 0.00 | 0.11 | 0.00 | 92 | 1017.9 |
| 20260901164605 | 50 | 0 | 0.0 | 0.0 | 0.00 | 0.11 | 0.00 | 93 | 1018.1 |
| 20260901163100 | 50 | 0 | 0.0 | 0.0 | 0.00 | 0.11 | 0.00 | 92 | 1018.2 |
| 20260901161606 | 50 | 0 | 0.0 | 0.0 | 0.00 | 0.11 | 0.00 | 92 | 1018.1 |
| 20260901160122 | 50 | 0 | 0.0 | 0.0 | 0.00 | 0.11 | 0.00 | 92 | 1018.2 |
| 20260901154606 | 51 | 0 | 0.0 | 0.0 | 0.00 | 0.11 | 0.00 | 92 | 1018.2 |
| 20260901153108 | 51 | 0 | 0.0 | 0.0 | 0.00 | 0.11 | 0.00 | 92 | 1018.1 |
| 20260901151610 | 51 | 0 | 0.0 | 0.0 | 0.00 | 0.11 | 0.00 | 92 | 1018.1 |
| 20260901150110 | 52 | 0 | 0.0 | 0.0 | 0.00 | 0.11 | 0.00 | 92 | 1018.1 |
| 20260901144606 | 52 | 0 | 0.0 | 0.0 | 0.00 | 0.11 | 0.00 | 92 | 1018.1 |
| 20260901143113 | 52 | 0 | 0.0 | 0.0 | 0.00 | 0.11 | 0.00 | 92 | 1018.3 |
| 20260901141607 | 52 | 0 | 0.0 | 0.0 | 0.00 | 0.11 | 0.11 | 92 | 1018.2 |
| 20260901140110 | 52 | 0 | 0.0 | 0.0 | 0.00 | 0.11 | 0.11 | 92 | 1018.3 |
| 20260901134607 | 53 | 0 | 0.0 | 0.0 | 0.00 | 0.11 | 0.11 | 92 | 1018.4 |
| 20260901133106 | 53 | 0 | 0.0 | 0.0 | 0.00 | 0.11 | 0.11 | 92 | 1018.5 |
| 20260901131609 | 53 | 0 | 0.0 | 0.0 | 0.00 | 0.11 | 0.11 | 92 | 1018.6 |
| 20260901130107 | 54 | 0 | 0.0 | 0.0 | 0.00 | 0.11 | 0.11 | 92 | 1018.5 |
| 20260901124608 | 54 | 0 | 0.0 | 0.0 | 0.00 | 0.11 | 0.11 | 92 | 1018.5 |
| 20260901123122 | 54 | 0 | 0.0 | 0.0 | 0.00 | 0.11 | 0.11 | 91 | 1018.4 |
| 20260901121610 | 54 | 0 | 0.0 | 0.0 | 0.00 | 0.11 | 0.11 | 91 | 1018.6 |
| 20260901120103 | 54 | 0 | 0.0 | 0.0 | 0.00 | 0.11 | 0.11 | 91 | 1018.6 |
| 20260901114606 | 54 | 0 | 0.0 | 0.0 | 0.00 | 0.11 | 0.11 | 90 | 1018.4 |
| 20260901113109 | 54 | 0 | 0.0 | 0.0 | 0.00 | 0.11 | 0.11 | 90 | 1018.3 |
| 20260901111613 | 54 | 0 | 0.0 | 0.0 | 0.00 | 0.11 | 0.11 | 90 | 1018.1 |
| 20260901110114 | 54 | 0 | 0.0 | 0.0 | 0.00 | 0.11 | 0.11 | 90 | 1018.1 |
| 20260901104605 | 54 | 0 | 0.0 | 0.0 | 0.00 | 0.11 | 0.11 | 89 | 1017.9 |
| 20260901103118 | 54 | 0 | 0.0 | 0.0 | 0.00 | 0.11 | 0.11 | 88 | 1018.0 |
| 20260901101602 | 54 | 0 | 0.0 | 0.0 | 0.00 | 0.11 | 0.11 | 88 | 1018.0 |
| 20260901100115 | 55 | 0 | 0.0 | 0.0 | 0.00 | 0.11 | 0.11 | 87 | 1017.9 |
| 20260901094603 | 55 | 0 | 0.0 | 0.0 | 0.00 | 0.11 | 0.11 | 86 | 1017.5 |
| 20260901093111 | 56 | 0 | 0.0 | 0.0 | 0.00 | 0.11 | 0.11 | 85 | 1017.2 |
| 20260901091612 | 56 | 0 | 0.0 | 0.0 | 0.00 | 0.11 | 0.11 | 85 | 1016.8 |
| 20260901090105 | 56 | 0 | 0.0 | 0.0 | 0.00 | 0.11 | 0.11 | 85 | 1016.5 |
| 20260901084603 | 55 | 0 | 0.0 | 0.0 | 0.00 | 0.11 | 0.11 | 86 | 1016.6 |
| 20260901083106 | 55 | 0 | 0.0 | 0.0 | 0.00 | 0.11 | 0.11 | 87 | 1016.4 |
| 20260901081601 | 55 | 0 | 0.0 | 0.0 | 0.00 | 0.11 | 0.11 | 88 | 1016.2 |
| 20260901080104 | 54 | 0 | 0.0 | 0.0 | 0.00 | 0.11 | 0.11 | 89 | 1016.1 |
| 20260901074606 | 54 | 0 | 0.0 | 0.0 | 0.00 | 0.11 | 0.11 | 90 | 1015.9 |
| 20260901073102 | 53 | 0 | 0.0 | 0.0 | 0.02 | 0.11 | 0.11 | 90 | 1015.6 |
| 20260901071604 | 53 | 0 | 0.0 | 0.0 | 0.03 | 0.11 | 0.11 | 90 | 1015.7 |
| 20260901070109 | 53 | 0 | 0.0 | 0.0 | 0.06 | 0.11 | 0.11 | 90 | 1015.8 |
| 20260901064609 | 53 | 0 | 0.0 | 0.0 | 0.09 | 0.11 | 0.11 | 90 | 1016.4 |
| 20260901063104 | 53 | 0 | 0.0 | 0.0 | 0.09 | 0.09 | 0.09 | 89 | 1017.0 |
| 20260901061610 | 54 | 0 | 0.0 | 0.0 | 0.07 | 0.07 | 0.07 | 88 | 1017.3 |
| 20260901060110 | 54 | 0 | 0.0 | 0.0 | 0.05 | 0.05 | 0.05 | 86 | 1018.1 |
| 20260901054609 | 56 | 0 | 0.0 | 0.0 | 0.01 | 0.01 | 0.01 | 82 | 1018.1 |
| 20260901053124 | 58 | 0 | 0.0 | 0.0 | 0.00 | 0.00 | 0.00 | 78 | 1017.6 |
| 20260901051611 | 58 | 0 | 0.0 | 0.0 | 0.00 | 0.00 | 0.00 | 77 | 1017.3 |
| 20260901050111 | 59 | 0 | 0.0 | 0.0 | 0.00 | 0.00 | 0.00 | 75 | 1016.9 |
| 20260901044622 | 60 | 0 | 0.0 | 0.0 | 0.00 | 0.00 | 0.00 | 71 | 1016.7 |
| 20260901043105 | 61 | 0 | 0.0 | 0.0 | 0.00 | 0.00 | 0.00 | 68 | 1016.6 |
| 20260901041606 | 62 | 0 | 0.0 | 0.0 | 0.00 | 0.00 | 0.00 | 64 | 1016.5 |
| 20260901040112 | 64 | 0 | 0.0 | 0.0 | 0.00 | 0.00 | 0.00 | 62 | 1016.4 |
| 20260901034607 | 64 | 0 | 0.0 | 0.0 | 0.00 | 0.00 | 0.00 | 62 | 1016.4 |
| 20260901033104 | 64 | 0 | 0.0 | 0.0 | 0.00 | 0.00 | 0.00 | 62 | 1016.4 |
| 20260901031605 | 64 | 0 | 0.0 | 0.0 | 0.00 | 0.00 | 0.00 | 64 | 1016.7 |
| 20260901030108 | 63 | 0 | 0.0 | 0.0 | 0.00 | 0.00 | 0.00 | 61 | 1016.9 |
| 20260901024609 | 64 | 0 | 0.0 | 0.0 | 0.00 | 0.00 | 0.00 | 60 | 1017.6 |
| 20260901023109 | 64 | 0 | 0.0 | 0.0 | 0.00 | 0.00 | 0.00 | 62 | 1017.8 |
| 20260901021605 | 64 | 0 | 0.0 | 0.0 | 0.00 | 0.00 | 0.00 | 59 | 1018.0 |
| 20260901020106 | 64 | 0 | 0.0 | 0.0 | 0.00 | 0.00 | 0.00 | 59 | 1018.5 |
| 20260901014607 | 64 | 0 | 0.0 | 0.0 | 0.00 | 0.00 | 0.00 | 59 | 1019.1 |
| 20260901013105 | 62 | 0 | 0.0 | 0.0 | 0.00 | 0.00 | 0.00 | 65 | 1019.3 |
| 20260901011608 | 60 | 0 | 0.0 | 0.0 | 0.00 | 0.00 | 0.00 | 62 | 1018.8 |
| 20260901010105 | 61 | 0 | 0.0 | 0.0 | 0.00 | 0.00 | 0.00 | 60 | 1019.5 |
| 20260901004610 | 61 | 0 | 0.0 | 0.0 | 0.00 | 0.00 | 0.00 | 62 | 1019.8 |
| 20260901003110 | 61 | 0 | 0.0 | 0.0 | 0.00 | 0.00 | 0.00 | 60 | 1019.6 |
| 20260901001607 | 62 | 0 | 0.0 | 0.0 | 0.00 | 0.00 | 0.00 | 61 | 1019.6 |
| 20260901000106 | 62 | 0 | 0.0 | 0.0 | 0.00 | 0.00 | 0.00 | 62 | 1020.1 |
| 20260831234606 | 62 | 0 | 0.0 | 0.0 | 0.00 | 0.00 | 0.00 | 63 | 1020.3 |
| 20260831233107 | 60 | 0 | 0.0 | 0.0 | 0.00 | 0.00 | 0.00 | 66 | 1020.3 |
| 20260831231602 | 59 | 0 | 0.0 | 0.0 | 0.00 | 0.00 | 0.00 | 65 | 1020.4 |